TimeAKDT,TemperatureF,Dew PointF,Humidity,Sea Level PressureIn,VisibilityMPH,Wind Direction,Wind SpeedMPH,Gust SpeedMPH,PrecipitationIn,Events,Conditions,WindDirDegrees,DateUTC
12:52 AM,37.0,25.0,62,29.80,10.0,Calm,Calm,-,N/A,,Clear,0,2013-09-17 08:52:00
1:52 AM,36.0,25.0,64,29.80,10.0,Calm,Calm,-,N/A,,Clear,0,2013-09-17 09:52:00
2:52 AM,36.0,24.1,62,29.79,10.0,Calm,Calm,-,N/A,,Clear,0,2013-09-17 10:52:00
3:52 AM,32.0,24.1,73,29.78,10.0,ENE,3.5,-,N/A,,Clear,70,2013-09-17 11:52:00
4:52 AM,33.1,24.1,70,29.78,10.0,East,6.9,-,N/A,,Clear,100,2013-09-17 12:52:00
5:52 AM,30.9,23.0,72,29.78,10.0,NNE,3.5,-,N/A,,Clear,30,2013-09-17 13:52:00
6:52 AM,26.1,21.0,81,29.78,10.0,ENE,3.5,-,N/A,,Partly Cloudy,60,2013-09-17 14:52:00
7:52 AM,23.0,19.9,88,29.78,10.0,NNW,4.6,-,N/A,,Partly Cloudy,330,2013-09-17 15:52:00
8:52 AM,27.0,21.9,81,29.78,10.0,North,4.6,-,N/A,,Scattered Clouds,350,2013-09-17 16:52:00
9:52 AM,35.1,24.1,64,29.77,10.0,ENE,4.6,-,N/A,,Scattered Clouds,60,2013-09-17 17:52:00
10:52 AM,36.0,23.0,59,29.77,10.0,Calm,Calm,-,N/A,,Scattered Clouds,0,2013-09-17 18:52:00
11:52 AM,41.0,26.1,55,29.75,10.0,SE,5.8,-,N/A,,Partly Cloudy,130,2013-09-17 19:52:00
12:52 PM,39.0,23.0,53,29.75,10.0,ESE,11.5,-,N/A,,Scattered Clouds,120,2013-09-17 20:52:00
1:52 PM,39.9,26.1,58,29.74,9.0,SE,10.4,-,N/A,,Scattered Clouds,130,2013-09-17 21:52:00
2:52 PM,39.9,21.9,49,29.73,10.0,East,11.5,19.6,N/A,,Scattered Clouds,80,2013-09-17 22:52:00
3:52 PM,39.9,24.1,53,29.73,10.0,ESE,12.7,-,N/A,,Mostly Cloudy,120,2013-09-17 23:52:00
4:52 PM,37.9,23.0,55,29.73,10.0,ESE,9.2,16.1,N/A,,Mostly Cloudy,110,2013-09-18 00:52:00
5:52 PM,37.0,23.0,57,29.74,10.0,ESE,8.1,-,N/A,,Mostly Cloudy,110,2013-09-18 01:52:00
6:52 PM,36.0,21.9,57,29.75,10.0,East,10.4,17.3,N/A,,Mostly Cloudy,90,2013-09-18 02:52:00
7:52 PM,34.0,21.9,61,29.75,10.0,East,5.8,-,N/A,,Mostly Cloudy,80,2013-09-18 03:52:00
8:52 PM,33.1,21.9,64,29.75,10.0,NE,3.5,-,N/A,,Mostly Cloudy,50,2013-09-18 04:52:00
9:52 PM,33.1,21.9,64,29.75,10.0,NE,6.9,-,N/A,,Mostly Cloudy,40,2013-09-18 05:52:00
10:52 PM,33.1,21.9,64,29.75,10.0,NE,4.6,-,N/A,,Overcast,40,2013-09-18 06:52:00
11:52 PM,33.1,23.0,66,29.75,10.0,Calm,Calm,-,N/A,,Overcast,0,2013-09-18 07:52:00